Wind_Speed
11 11 11 11 11 11 12 12 11 11 11 12 12 13 13 13 13 13 13 14 14 14 14 14 14 13 14 14 15 15 15 16 15 16 16 16 16 17 16 16 16 17 17
12 12 12 12 12 12 12 12 12 12 13 13 13 14 14 14 14 14 14 14 14 14 15 15 15 15 15 16 16 16 17 18 18 17 17 18 18 18 17 17 18 17 17
12 12 12 13 13 13 13 13 13 14 14 14 15 15 15 15 16 16 16 16 16 16 17 17 17 16 16 17 18 18 18 18 19 18 19 19 19 19 19 19 19 18 18
12 12 13 13 14 14 14 14 15 15 15 16 16 16 16 17 17 17 17 18 18 18 18 18 18 17 17 18 18 19 19 19 20 20 20 20 20 20 20 20 20 20 20
13 13 14 14 15 15 16 16 16 16 16 16 17 17 18 18 18 18 18 19 18 18 18 19 19 19 19 19 19 20 20 21 21 21 22 22 21 21 21 21 21 22 22
15 15 15 15 16 16 17 17 17 17 17 17 18 18 19 19 20 19 20 20 19 19 19 19 20 21 20 20 20 21 21 22 22 22 23 22 22 22 22 22 22 22 22
16 17 17 18 18 18 18 18 19 19 19 20 20 20 21 22 22 22 22 21 22 20 20 20 20 21 22 22 23 23 24 24 24 24 23 23 23 23 23 23 23 23 23
18 19 19 19 19 20 19 20 21 22 22 22 22 22 22 22 22 23 22 22 22 22 22 21 22 23 24 25 25 25 26 26 27 26 26 26 25 25 25 24 24 24 24
20 20 20 20 21 21 22 22 22 23 23 23 23 23 23 23 23 23 23 24 24 24 24 24 25 26 27 27 27 27 27 27 28 27 27 26 26 25 25 24 24 24 24
22 22 22 22 23 23 24 25 25 25 25 24 24 24 24 24 24 24 24 25 26 26 26 26 26 27 27 28 28 28 28 29 29 28 28 27 26 25 25 25 25 25 25
24 24 24 25 25 25 26 26 27 26 26 25 25 25 25 25 26 25 25 26 26 26 27 27 27 28 28 29 29 30 30 30 29 29 28 27 26 26 25 26 26 26 26
26 25 26 27 28 28 28 28 27 27 27 26 26 26 25 26 26 26 26 26 27 27 27 27 27 28 29 29 30 30 30 30 30 29 28 27 27 27 26 26 26 26 26
27 27 27 28 29 29 29 28 28 28 28 27 27 27 26 27 27 27 27 27 27 27 28 28 28 29 29 29 30 30 30 30 29 29 28 27 27 27 27 27 27 26 27
27 28 28 29 29 29 30 29 29 29 29 28 28 28 28 28 28 28 28 28 28 28 28 29 29 29 30 29 29 30 30 29 28 28 27 27 27 27 27 27 27 26 26
28 29 28 29 30 30 30 31 31 30 29 30 30 29 29 29 30 30 29 29 29 29 30 30 30 29 30 30 30 30 29 28 28 28 27 27 27 27 27 26 26 26 26
29 29 30 30 31 30 31 31 31 31 31 31 31 31 31 31 31 31 31 31 30 30 30 30 30 29 30 30 29 29 28 28 28 28 27 27 27 27 27 27 27 26 25
31 30 30 30 30 31 32 32 32 33 33 34 34 33 33 33 32 32 32 32 32 32 31 31 30 30 30 30 29 29 29 29 28 28 28 28 28 28 28 27 27 27 26
31 31 31 31 32 32 33 33 34 35 35 35 35 35 35 34 34 33 33 32 32 32 32 31 32 31 31 30 30 30 30 29 29 28 28 28 28 28 28 27 27 27 27
31 32 32 32 32 33 33 34 35 36 36 35 34 34 34 35 34 34 33 33 33 33 32 32 31 31 31 31 31 30 29 29 28 28 27 27 27 28 28 28 28 28 27
33 33 33 33 34 34 35 36 36 36 35 34 33 34 34 34 34 33 33 34 34 33 33 32 31 30 31 30 30 29 29 29 28 28 27 28 28 28 28 28 29 29 29
33 33 33 34 34 35 35 36 36 36 35 34 34 33 33 33 33 33 33 34 34 33 32 31 31 30 30 30 29 30 29 29 29 29 28 29 29 28 29 29 30 30 30
32 33 34 34 34 34 35 36 36 36 35 34 34 34 33 33 33 33 33 33 33 32 31 31 31 31 31 29 29 30 30 30 29 29 29 29 29 29 30 30 30 29 29
33 33 32 32 32 33 34 35 36 36 36 36 35 34 34 34 35 35 34 33 33 32 32 32 31 31 31 31 30 30 30 29 29 29 29 30 30 30 30 29 30 30 30
33 33 33 33 34 34 35 35 36 36 36 36 35 35 35 36 35 35 34 33 33 32 33 33 32 32 32 32 32 32 31 30 30 31 30 30 30 29 29 29 29 29 29
33 33 34 34 34 35 35 35 36 36 35 35 35 35 35 34 34 34 34 34 33 32 32 32 32 32 32 32 32 31 31 30 30 30 30 30 30 30 30 29 29 29 29
33 34 35 35 35 34 34 34 34 33 33 34 34 34 34 34 33 33 32 32 32 32 32 32 32 32 31 31 31 31 30 30 30 31 30 30 30 29 29 29 29 29 29
Wind_Direction
306 307 311 314 318 320 323 326 325 324 323 323 321 320 319 317 315 315 312 310 311 312 312 313 313 312 313 314 314 312 311 310 308 308 309 310 309 307 306 305 304 305 304
305 303 305 309 313 314 315 318 318 318 318 317 318 318 316 315 315 315 314 310 310 310 309 309 310 309 309 310 310 309 308 309 310 309 306 306 306 305 303 303 302 302 302
305 303 302 303 305 307 308 311 313 315 317 317 319 318 315 312 312 312 311 307 307 308 307 306 307 307 307 308 308 308 307 308 308 308 307 304 303 302 301 303 304 301 299
303 304 304 303 303 304 307 310 311 311 312 313 313 314 313 312 311 311 310 310 307 306 304 302 303 305 306 308 308 308 308 308 309 309 307 306 303 300 300 301 301 300 298
296 298 301 301 302 303 303 307 309 310 310 311 311 312 313 311 310 311 310 309 307 306 303 302 302 305 306 307 307 307 307 307 307 307 307 305 303 302 300 299 299 299 299
291 293 296 297 299 301 302 304 305 307 306 307 309 310 310 309 308 308 307 307 306 305 304 302 303 306 306 306 306 307 307 306 306 306 305 303 302 301 300 299 299 297 297
288 289 291 293 295 297 298 299 302 303 302 302 304 306 305 306 306 304 302 303 303 301 301 302 304 306 305 303 304 305 305 304 304 306 303 301 301 300 299 299 298 297 296
285 286 289 292 293 294 296 297 299 301 301 301 302 305 304 304 305 305 304 303 301 301 301 302 303 303 304 302 304 305 306 306 305 305 304 300 300 299 297 296 296 296 297
282 285 287 290 292 293 294 296 297 299 300 301 301 302 302 302 304 303 303 303 302 300 301 301 301 302 303 302 302 303 304 305 306 304 303 302 300 297 296 297 296 296 296
280 282 284 286 290 292 293 294 296 298 299 300 300 300 300 300 302 302 302 302 300 299 299 299 300 300 301 301 301 301 302 302 303 303 302 300 299 296 295 296 296 295 295
278 280 281 283 286 288 289 291 293 295 297 298 298 298 298 298 301 301 300 300 300 300 300 299 298 299 300 300 301 301 301 302 301 300 299 298 296 294 293 293 294 293 293
279 279 280 282 284 285 287 289 290 292 294 295 295 295 296 297 300 301 300 299 300 300 301 300 299 300 300 301 301 300 300 301 300 300 298 295 294 293 293 292 292 292 292
278 279 279 282 283 283 285 287 289 290 291 291 292 293 293 295 297 299 299 300 300 300 300 300 299 300 301 301 301 301 301 301 300 299 298 296 294 294 294 294 293 292 293
277 278 278 280 282 283 284 285 287 289 290 291 291 292 292 294 296 297 298 298 299 299 299 300 300 300 301 301 300 301 301 301 301 300 298 297 296 296 296 295 294 293 293
276 278 279 280 280 282 283 283 284 287 289 291 291 291 291 292 293 294 296 296 296 297 298 298 298 299 300 300 300 300 300 299 299 299 298 298 296 296 295 295 295 294 292
277 279 280 281 281 281 282 283 284 286 287 289 290 290 290 290 290 292 294 294 294 295 296 295 295 296 298 299 299 300 300 300 298 297 297 297 296 294 295 295 294 293 292
275 278 280 281 281 281 282 282 284 285 286 288 288 288 288 288 289 290 291 292 294 295 295 296 296 297 298 298 298 298 297 297 298 298 297 297 297 296 295 295 294 292 292
274 277 279 280 281 281 282 283 285 286 287 287 285 286 286 287 288 289 291 292 292 293 293 295 296 296 296 296 296 297 297 296 297 297 297 297 297 297 296 297 296 293 293
272 275 277 278 279 280 281 283 285 286 286 287 286 287 288 289 289 290 290 290 291 291 292 293 295 295 295 295 295 297 296 296 297 296 296 296 296 296 295 295 295 294 293
271 274 275 276 278 278 280 282 284 284 285 286 286 287 288 289 289 289 289 289 290 291 291 291 292 294 295 295 296 296 296 296 296 296 295 294 295 294 293 294 295 293 293
273 275 274 275 278 277 278 280 282 283 284 283 284 285 287 289 290 289 289 289 289 290 290 290 290 291 292 293 294 294 294 294 295 294 293 293 294 294 294 293 294 294 294
276 278 278 278 278 277 278 280 280 280 281 282 282 283 285 286 289 290 288 288 289 289 289 289 291 292 292 293 294 294 294 294 294 294 293 292 292 293 294 293 293 294 293
277 278 279 281 281 280 279 280 280 279 279 281 282 283 284 286 288 290 290 290 290 290 289 290 291 292 293 295 295 295 294 293 294 294 292 291 291 291 292 292 292 291 290
276 279 280 281 281 280 279 281 281 280 279 281 284 285 286 287 287 287 287 288 288 288 289 290 291 291 293 293 294 295 295 294 294 294 294 293 292 292 293 295 293 292 292
277 279 280 280 280 280 280 282 284 283 282 282 284 284 284 285 286 286 286 286 286 286 287 289 290 290 290 291 292 292 293 295 295 295 295 294 294 294 294 294 293 293 293
277 277 279 280 282 283 282 282 284 285 285 284 286 286 285 284 284 286 286 286 285 285 286 288 289 288 287 287 289 290 291 293 294 294 294 294 293 294 293 293 292 292 292
Height
5896 5896 5895 5894 5894 5892 5891 5890 5889 5888 5887 5886 5884 5883 5881 5880 5878 5876 5875 5873 5872 5871 5870 5868 5867 5866 5864 5863 5861 5859 5857 5855 5853 5851 5850 5848 5845 5844 5842 5840 5838 5837 5835
5894 5894 5893 5892 5891 5891 5889 5888 5887 5886 5885 5884 5882 5881 5879 5877 5875 5874 5872 5870 5869 5868 5866 5865 5864 5862 5861 5859 5857 5855 5853 5851 5849 5847 5846 5843 5841 5839 5837 5836 5834 5833 5831
5892 5891 5890 5890 5889 5888 5887 5886 5885 5884 5882 5881 5880 5878 5876 5875 5873 5871 5869 5867 5865 5864 5863 5861 5860 5858 5857 5855 5853 5851 5849 5847 5845 5843 5841 5839 5837 5835 5833 5831 5829 5827 5826
5889 5888 5888 5887 5886 5885 5884 5883 5882 5881 5880 5878 5877 5875 5873 5871 5869 5867 5865 5863 5861 5860 5859 5857 5856 5854 5852 5850 5849 5847 5845 5843 5841 5838 5836 5834 5832 5830 5828 5826 5824 5822 5820
5886 5886 5885 5884 5883 5882 5881 5880 5879 5877 5876 5875 5873 5871 5870 5868 5866 5864 5861 5859 5857 5856 5854 5853 5851 5850 5848 5846 5844 5842 5840 5838 5835 5833 5831 5829 5826 5824 5822 5820 5818 5816 5814
5883 5882 5882 5881 5880 5879 5878 5877 5875 5874 5872 5871 5869 5867 5866 5864 5862 5859 5857 5855 5853 5851 5850 5848 5847 5845 5843 5841 5839 5837 5834 5832 5830 5827 5825 5823 5820 5818 5816 5814 5812 5810 5808
5879 5878 5878 5877 5876 5875 5874 5873 5871 5870 5868 5867 5865 5863 5861 5859 5857 5855 5853 5851 5849 5847 5845 5844 5842 5840 5838 5835 5833 5831 5828 5826 5823 5821 5819 5816 5814 5812 5810 5808 5806 5804 5802
5874 5874 5873 5872 5871 5870 5869 5868 5867 5865 5864 5862 5860 5858 5856 5854 5852 5850 5847 5845 5843 5842 5840 5838 5836 5834 5832 5829 5827 5825 5822 5820 5817 5814 5812 5810 5807 5805 5803 5801 5799 5797 5796
5869 5869 5868 5867 5866 5865 5864 5863 5861 5860 5858 5856 5855 5852 5851 5849 5847 5845 5842 5840 5838 5836 5834 5832 5830 5828 5826 5823 5821 5818 5816 5813 5810 5808 5805 5803 5800 5798 5796 5794 5792 5790 5788
5864 5863 5863 5862 5861 5859 5858 5857 5855 5854 5852 5850 5848 5846 5844 5843 5841 5839 5836 5834 5832 5830 5828 5826 5824 5821 5819 5816 5814 5811 5809 5806 5803 5801 5798 5795 5793 5791 5789 5787 5785 5783 5781
5857 5857 5856 5855 5854 5853 5852 5850 5849 5847 5845 5843 5842 5840 5838 5836 5834 5832 5830 5827 5825 5823 5821 5819 5817 5814 5812 5809 5806 5804 5801 5798 5796 5793 5791 5788 5786 5784 5782 5779 5777 5775 5774
5850 5849 5849 5848 5847 5846 5845 5843 5841 5840 5838 5836 5835 5833 5831 5829 5827 5825 5823 5821 5818 5816 5814 5812 5809 5807 5805 5802 5799 5796 5793 5790 5788 5785 5783 5780 5778 5776 5774 5772 5770 5768 5766
5842 5842 5841 5840 5839 5838 5837 5835 5834 5832 5831 5829 5828 5826 5825 5823 5820 5818 5816 5813 5811 5809 5807 5804 5802 5800 5797 5794 5791 5788 5785 5782 5780 5778 5775 5773 5771 5769 5767 5765 5762 5760 5758
5835 5834 5833 5833 5832 5830 5829 5828 5826 5825 5823 5821 5820 5819 5817 5815 5813 5811 5808 5806 5804 5801 5799 5797 5794 5792 5789 5787 5784 5781 5778 5775 5772 5770 5767 5765 5763 5761 5759 5757 5755 5753 5751
5827 5826 5825 5824 5823 5822 5821 5819 5818 5817 5815 5814 5812 5810 5809 5807 5805 5803 5800 5798 5796 5793 5791 5789 5786 5784 5781 5779 5776 5773 5770 5767 5765 5762 5760 5758 5756 5754 5752 5749 5747 5745 5744
5819 5818 5817 5816 5814 5813 5812 5811 5810 5808 5807 5805 5804 5802 5800 5799 5796 5794 5792 5790 5787 5785 5783 5780 5778 5775 5773 5771 5768 5765 5763 5760 5757 5755 5753 5750 5748 5746 5744 5742 5740 5738 5736
5810 5809 5808 5807 5806 5805 5804 5802 5801 5800 5798 5797 5795 5793 5791 5789 5787 5785 5783 5781 5779 5777 5774 5772 5769 5767 5764 5762 5759 5757 5754 5752 5749 5747 5745 5743 5740 5738 5736 5734 5732 5730 5729
5801 5800 5799 5798 5797 5796 5795 5793 5792 5791 5789 5787 5785 5783 5781 5779 5778 5776 5774 5772 5770 5768 5765 5763 5760 5758 5755 5753 5750 5748 5746 5744 5741 5739 5737 5734 5732 5730 5728 5726 5724 5722 5720
5792 5791 5790 5789 5788 5787 5785 5784 5782 5781 5779 5777 5776 5774 5772 5770 5768 5766 5764 5762 5760 5758 5756 5754 5751 5748 5746 5744 5742 5740 5737 5735 5733 5731 5728 5726 5724 5722 5720 5718 5717 5714 5712
5782 5781 5780 5780 5779 5778 5776 5774 5772 5771 5769 5768 5766 5764 5763 5761 5759 5756 5755 5753 5750 5748 5746 5744 5742 5739 5737 5735 5733 5731 5729 5726 5724 5722 5720 5718 5716 5714 5712 5710 5708 5706 5704
5772 5771 5770 5769 5768 5768 5766 5764 5763 5761 5759 5758 5756 5754 5753 5751 5749 5746 5744 5743 5741 5739 5737 5735 5733 5731 5728 5726 5724 5722 5720 5718 5716 5714 5712 5710 5708 5706 5704 5702 5700 5697 5695
5763 5762 5761 5760 5758 5757 5756 5754 5753 5751 5750 5748 5747 5745 5743 5741 5739 5737 5734 5733 5731 5729 5728 5726 5723 5721 5719 5717 5715 5713 5711 5709 5707 5705 5703 5701 5699 5697 5695 5693 5691 5689 5686
5753 5752 5751 5749 5749 5747 5746 5744 5743 5741 5739 5738 5737 5735 5733 5731 5730 5728 5726 5724 5722 5720 5718 5716 5714 5712 5710 5708 5706 5704 5702 5700 5698 5695 5693 5691 5689 5687 5685 5683 5681 5679 5677
5743 5742 5741 5740 5739 5737 5736 5734 5732 5731 5729 5727 5726 5725 5723 5721 5719 5718 5716 5714 5712 5710 5709 5707 5705 5702 5700 5698 5696 5694 5692 5690 5688 5686 5684 5682 5680 5678 5676 5674 5672 5669 5667
5733 5732 5731 5730 5728 5727 5725 5724 5722 5720 5718 5717 5716 5714 5713 5711 5709 5707 5706 5704 5702 5700 5699 5697 5695 5693 5691 5689 5687 5685 5683 5681 5679 5677 5675 5673 5671 5668 5666 5664 5662 5660 5658
5724 5723 5722 5720 5719 5717 5715 5714 5712 5710 5708 5707 5705 5704 5702 5701 5699 5697 5696 5694 5692 5691 5689 5687 5685 5683 5682 5679 5677 5675 5673 5672 5669 5667 5665 5663 5661 5659 5657 5655 5653 5651 5649